Погода в Васильеве

Россия / Республика Татарстан     55°50′12″N   48°42′14″E
темп.,
°C
ветер,
м/с
пор.,
м/с
влажн.,
%
обл.,
%
осадки,
мм/ч
давл.,
гПа
погр.,
м
8 августа, пн
пн800:00+20юз1151100 0.0 102011
03:00+18сз005482 0.0 102011
06:00+21юв1157100 0.0 102126
09:00+24юз0153100 0.0 1021196
12:00+28ю114272 0.0 10201220
15:00+29в004188 0.0 10201892
18:00+24вюв116097 0.0 102028
21:00+22юз2264100 0.0 102016
9 августа, вт
вт900:00+20ююз1169100 0.0 102011
03:00+19зсз017446 0.2 102011
06:00+21сз117181 0.4 102046
09:00+25зсз0057100 0.4 1020381
12:00+28з1146100 0.0 10191354
15:00+29зюз2241100 0.0 10182130
18:00+25всв3558100 0.1 1017101
21:00+21сз006621 0.1 101812
10 августа, ср
ср1000:00+18сз338350 0.1 101849
03:00+17юв118322 0.1 101711
06:00+19сз2382100 0.0 1018118
09:00+23сз226687 0.0 1018443
12:00+26зсз225446 0.0 1017980
15:00+28з224988 0.0 10161368
18:00+18ссз5995100 5.8 1016308
21:00+17с3696100 15.2 1018316
11 августа, чт
чт1100:00+16ссз3698100 0.7 1018273
03:00+15ссз3893100 0.7 1020316
06:00+14ссз4988100 0.0 1021384
09:00+17ссз586541 0.0 1022743
12:00+21ссз57491 0.0 10221532
15:00+22ссз56440 0.0 10221821
18:00+20с35600 0.0 1022171
21:00+15ююз11660 0.0 102311
12 августа, пт
пт1200:00+14юз226942 0.0 102415
03:00+13зюз237448 0.0 102337
06:00+15зюз267999 0.0 1024164
09:00+20з5760100 0.0 1024655
12:00+23з575098 0.0 10231388
15:00+23з674896 0.0 10221423
18:00+21з486439 0.0 1021271
21:00+17з35725 0.0 102280